Regional Weather Roundup
Issued by NWS Grand Forks, ND

Home | Current Version | Previous Version | Text Only | Print | Product List | Glossary On
Versions: 1 2 3 4 5 6 7 8 9 10 11 12 13 14 15 16 17 18 19 20 21 22 23 24 25 26 27 28 29 30 31 32 33 34 35 36 37 38 39 40 41 42 43 44 45 46 47 48 49 50
000
ASUS43 KFGF 271010
RWRFGF
PRAIRIE TO PINES  WEATHER ROUNDUP
NATIONAL WEATHER SERVICE EASTERN NORTH DAKOTA/GRAND FORKS ND
500 AM CDT SAT MAY 27 2017

 **SATELLITE DATA USED TO AUGMENT SKY COVER AT AUTOMATED STATIONS**
 *****  WEATHER ACROSS EASTERN NORTH DAKOTA  *****

CITY           SKY/WX    TMP DP  RH WIND       PRES   REMARKS
GRAND FORKS    FAIR      51  43  74 SW9       29.76F
GRAND FRKS AFB FAIR      48  41  76 SW8       29.77F
DEVILS LAKE    FAIR      50  43  77 W10       29.79S
FARGO          FAIR      49  43  80 S7        29.82S
WAHPETON ARPT  FAIR      48  41  76 S5        29.84F
$$

 ***** WEATHER ACROSS CENTRAL AND WESTERN NORTH DAKOTA  *****

CITY           SKY/WX    TMP DP  RH WIND       PRES   REMARKS
BISMARCK       FAIR      46  37  71 CALM      29.88R
MINOT          FAIR      50  39  66 SW10      29.80S
JAMESTOWN      FAIR      51  41  68 W8        29.82S
MINOT AFB      FAIR      48  39  72 W12       29.79S
GARRISON         N/A     44  37  76 W12       29.84S
WILLISTON      CLOUDY    49  40  71 W10       29.87R
DICKINSON      NOT AVBL
HETTINGER      FAIR      38  33  82 W5        29.93S
$$

 *****  OTHER AIRPORT OBSERVATIONS IN OUR AREA  *****

CITY           SKY/WX    TMP DP  RH WIND       PRES   REMARKS
WALHALLA       NOT AVBL
GRAFTON AIRPOR FAIR      46  43  87 SW8       29.77S
VALLEY CITY AR FAIR      52  43  71 W12       29.84S
CANDO          NOT AVBL
CAVALIER APRT  FAIR      52  41  66 SW8       29.73S
GWINNER        SUNNY     50  45  81 MISG      29.84F
SHEYENNE NWR     N/A     46  44  91 SW5       29.95S
ROLLA          FAIR      45  41  87 W12       29.76S
 ***** THE ABOVE OBSERVATIONS ARE NON NWS ARE NOT QUALITY
       CONTROLLED AND MAY MIS-REPORT RAIN FOR SNOW...
$$

  *****  WEATHER ACROSS NORTHERN MINNESOTA  *****

CITY           SKY/WX    TMP DP  RH WIND       PRES   REMARKS
FLAG ISLAND    FAIR      52  45  76 SW9       29.73S
WARROAD        FAIR      48  45  87 SW7       29.77R
ROSEAU         FAIR      46  41  81 S7        29.76R
HALLOCK        FAIR      43  39  87 S7        29.74S
THF RVR FALLS  FAIR      48  41  76 S7        29.79F
BAUDETTE       FAIR      45  42  89 SW5       29.77S
WASKISH        FAIR      50  46  87 CALM      29.79F
CROOKSTON      FAIR      46  43  87 S8        29.79S
STEPHEN NDAWN    N/A     46  39  76 SE3         N/A
GREENBUSH NDAW   N/A     48  43  81 S7          N/A
$$
  *****  WEATHER ACROSS CENTRAL AND WEST MINNESOTA  *****

CITY           SKY/WX    TMP DP  RH WIND       PRES   REMARKS
FOSSTON        FAIR      45  39  81 S8        29.82S
BEMIDJI        FAIR      48  43  81 SW3       29.81F
PARK RAPIDS    FAIR      47  41  80 W5        29.83S
ELBOW LAKE     FAIR      49  45  85 CALM      29.87F
WADENA         FAIR      48  43  81 SW5       29.85S
DETROIT LAKES  FAIR      50  45  81 CALM      29.85S
MOORHEAD       FAIR      52  43  71 S5        29.84S
FERGUS FALLS   FAIR      52  45  76 S5        29.85S
MORRIS MN      FAIR      52  46  82 CALM      29.86F
STAPLES        FAIR      48  43  81 W5        29.86R
$$
  *****  WEATHER ELSEWHERE ACROSS MINNESOTA  *****

CITY           SKY/WX    TMP DP  RH WIND       PRES   REMARKS
DULUTH         FAIR      49  44  83 W6        29.82R
INTRNTL FALLS  FAIR      44  41  89 SW5       29.78R
ELY            FAIR      45  43  93 CALM      29.81R
CLOQUET        FAIR      46  43  87 W6        29.83R
WHEATON        FAIR      52  43  71 S3        29.87F
BRAINERD       FAIR      45  43  93 S3        29.86R
HIBBING        FAIR      39  39 100 CALM      29.81R
ALEXANDRIA     FAIR      49  45  86 SW7       29.88F
SAINT CLOUD    FAIR      46  45  96 CALM      29.87R
MINNEAPOLIS    FAIR      56  47  71 CALM      29.87S
$$

  *****  WEATHER ACROSS SOUTH DAKOTA  *****

CITY           SKY/WX    TMP DP  RH WIND       PRES   REMARKS
SIOUX FALLS    NOT AVBL
BROOKINGS      CLOUDY    53  49  86 SE3       29.89F
WATERTOWN      FAIR      50  45  83 CALM      29.88F
HURON          CLOUDY    55  51  86 S5        29.88S
SISSETON         N/A     55  46  71 SW5       29.85F
ABERDEEN       FAIR      50  43  77 S3        29.87F
MITCHELL       CLOUDY    57  48  72 CALM      29.90F
PIERRE         CLOUDY    57  45  64 NW7       29.90S
MOBRIDGE       FAIR      54  41  61 NW5       29.87R
RAPID CITY     MOCLDY    48  45  89 W6        29.97S
$$

  *****  SOME WEATHER IN NEARBY STATES *****

CITY           SKY/WX    TMP DP  RH WIND       PRES   REMARKS
GLASGOW MT     CLOUDY    48  40  73 NW3       29.89S
GREAT FALLS MT FAIR      45  37  73 SW10      30.02R
CHEYENNE WY    LGT RAIN  43  38  82 W7        30.03F
SCOTTSBLUFF NE CLOUDY    49  46  90 NW5       30.00F
OMAHA NE       CLOUDY    57  49  74 NW8       29.87F
DES MOINES IA  MOCLDY    62  60  93 E5        29.87F
DAVENPORT IA   FOG       56  56 100 E3        29.89R VSB 3/4
CHICAGO IL     CLOUDY    52  50  93 N6        29.87S
EAU CLAIRE WI  NOT AVBL
LA CROSSE WI   FAIR      59  57  93 S7        29.87R
$$

  *****  SOME NATIONAL WEATHER *****

CITY           SKY/WX    TMP DP  RH WIND       PRES   REMARKS
LA GUARDIA NY  FAIR      62  54  74 NW14      29.85R
RALEIGH NC     FAIR      61  58  90 SW3       29.95F
ATLANTA GA     MOCLDY    66  62  87 SW6       30.02S
NEW ORLEANS LA CLOUDY    77  75  93 S6        29.96S
OKLAHOMA CITY  FAIR      69  68  96 SE7       29.75F
ALBUQUERQUE NM FAIR      56   9  15 S3        30.06R
SALT LAKE CITY NOT AVBL
LOS ANGELES CA FAIR      58  53  84 SW9       30.02S
BOISE ID       FAIR      51  41  68 SE9       30.09R
SEATTLE WA     FAIR      63  46  54 CALM      30.05R
$$

*** WEATHER ACROSS MANITOBA...SASKATCHEWAN AND ONTARIO ***
                ***ONTARIO***

CITY           SKY/WX    TMP DP  RH WIND       PRES   REMARKS
GERALDTON      MOCLDY    52  52 100 SE3       29.78F
THUNDER BAY    MOCLDY    45  45 100 VRB2      29.78S
SIOUX LOOKOUT  PTCLDY    50  48  93 SW3       29.72S
TORONTO        MOCLDY    57  54  88 N3        29.88R
BIG TROUT LK     N/A     52  50  93 S5        29.65S
PICKLE LAKE    NOT AVBL
DRYDEN         CLEAR     50  46  87 SW8       29.73R
KENORA         PTCLDY    50  45  81 SW5       29.72F
$$
                *** MANITOBA***

CITY           SKY/WX    TMP DP  RH WIND       PRES   REMARKS
BRANDON        PTCLDY    41  39  93 W5        29.72S
DAUPHIN        MOCLDY    50  43  76 SW9       29.68R
ISLAND LAKE    MOCLDY    48  45  87 SE6       29.59R
PILOT MOUND      N/A     45  37  76 W5          N/A
THE PAS        CLOUDY    50  48  93 NW12G18   29.56R
THOMPSON       FOG       50  50 100 NE6       29.51S VSB 1/4
WINNIPEG       PTCLDY    50  43  76 W10       29.71S
LYNN LAKE      LGT RAIN  43  43 100 N7        29.60R
CHURCHILL      LGT RAIN  34  32  93 NE15      29.68S WCI  24
GILLAM         CLOUDY    43  43 100 E5        29.57R FOG
$$
                ***SASKATCHEWAN***

CITY           SKY/WX    TMP DP  RH WIND       PRES   REMARKS
ESTEVAN        PTCLDY    46  41  81 SW8       29.79S
KINDERSLEY     PTCLDY    46  41  81 W2        29.81S
LLOYDMINSTER   CLOUDY    48  45  87 W9        29.80R
PRINCE ALBERT  PTCLDY    41  37  87 W5        29.74R
REGINA         PTCLDY    41  39  93 W9        29.77S
YORKTON          N/A     46  43  87 W9        29.71R
N. BATTLEFORD  CLEAR     39  39 100 CALM      29.80S
LA RONGE       CLOUDY    50  46  87 W9        29.69R
SASKATOON      PTCLDY    37  36  93 W7        29.78S
SWIFT CURRENT  PTCLDY    46  41  81 W12       29.82S
$$
NOTE: THESE ARE AUTOMATED STATIONS WITH LIMITED QUALITY CONTROL
      "FAIR" INDICATES FEW OR NO CLOUDS BELOW 12,000 FEET WITH NO
      SIGNIFICANT WEATHER AND/OR OBSTRUCTIONS TO VISIBILITY.
      SKY/WX - SKY CONDITION AND SIGNIFICANT WEATHER.
      TMP - AIR TEMPERATURE.    DP   - DEWPOINT TEMPERATURE.
      RH  - RELATIVE HUMIDITY.  PRES - PRESSURE.
      HX  - HEAT INDEX.         WCI  - WIND CHILL INDEX.
$




USA.gov is the U.S. government's official web portal to all federal, state and local government web resources and services.